DW7628 Weather Reports


Display with metric or nautical units.
time (UTC)temp
F
wind
direction
speed
MPH
gust
MPH
rain 1hr
in
rain 24hr
in
rain mn
in
humidity
%
barometer
mb
20260503001806 51 266 0.0 0.0 0.00 0.00 0.00 78 1020.2
20260503001306 51 282 0.0 0.0 0.00 0.00 0.00 78 1020.2
20260503000806 51 251 0.0 0.0 0.00 0.00 0.00 79 1020.3
20260503000307 51 242 0.0 0.0 0.00 0.00 0.00 78 1020.3
20260502235806 51 242 0.0 0.0 0.00 0.00 0.00 78 1020.3
20260502235306 51 242 0.0 0.0 0.00 0.00 0.00 78 1020.4
20260502234806 51 242 0.0 0.0 0.00 0.00 0.00 78 1020.4
20260502234307 51 245 0.0 0.0 0.00 0.00 0.00 78 1020.4
20260502233806 51 245 0.0 0.0 0.00 0.00 0.00 77 1020.4
20260502233307 51 245 0.0 0.0 0.00 0.00 0.00 77 1020.5
20260502232806 51 245 0.0 0.0 0.00 0.00 0.00 77 1020.6
20260502232306 51 245 0.0 0.0 0.00 0.00 0.00 77 1020.6
20260502231806 51 245 0.0 0.0 0.00 0.00 0.00 77 1020.7
20260502231306 51 245 0.0 0.0 0.00 0.00 0.00 77 1020.8
20260502230806 52 245 0.0 0.0 0.00 0.00 0.00 76 1020.7
20260502230306 52 245 0.0 0.0 0.00 0.00 0.00 76 1020.8
20260502225806 52 300 0.0 0.0 0.00 0.00 0.00 76 1020.9
20260502225307 52 249 0.0 0.0 0.00 0.00 0.00 76 1020.9
20260502224806 52 156 0.0 0.0 0.00 0.00 0.00 76 1020.9
20260502224306 52 137 0.0 0.0 0.00 0.00 0.00 76 1020.9
20260502223306 52 247 0.0 0.0 0.00 0.00 0.00 76 1020.9
20260502222806 52 294 0.0 0.0 0.00 0.00 0.00 75 1020.8
20260502222306 52 207 0.0 0.0 0.00 0.00 0.00 75 1020.9
20260502221806 52 189 0.0 0.0 0.00 0.00 0.00 75 1020.8
20260502221306 52 182 0.0 0.0 0.00 0.00 0.00 75 1020.8
20260502220826 52 167 0.0 0.0 0.00 0.00 0.00 75 1020.8
20260502220306 52 281 0.0 0.0 0.00 0.00 0.00 75 1020.8
20260502215306 52 177 0.0 0.0 0.00 0.00 0.00 75 1020.8
20260502214806 52 140 0.0 0.0 0.00 0.00 0.00 75 1020.8
20260502214306 52 256 0.0 0.0 0.00 0.00 0.00 75 1020.8
20260502213806 52 232 0.0 0.0 0.00 0.00 0.00 75 1020.7
20260502213306 52 214 0.0 0.0 0.00 0.00 0.00 75 1020.8
20260502212806 52 242 0.0 0.0 0.00 0.00 0.00 75 1020.7
20260502212307 52 231 0.0 0.0 0.00 0.00 0.00 75 1020.7
20260502211806 52 236 0.0 0.0 0.00 0.00 0.00 75 1020.7
20260502211305 52 153 0.0 0.0 0.00 0.00 0.00 74 1020.7
20260502210806 52 27 0.0 0.0 0.00 0.00 0.00 74 1020.6
20260502210306 52 248 0.0 0.0 0.00 0.00 0.00 74 1020.5
20260502205806 53 286 0.0 0.0 0.00 0.00 0.00 74 1020.7
20260502205306 53 82 0.0 0.0 0.00 0.00 0.00 74 1020.6
20260502204805 53 156 0.0 0.0 0.00 0.00 0.00 74 1020.5
20260502204306 53 157 0.0 0.0 0.00 0.00 0.00 74 1020.7
20260502203306 53 118 0.0 0.0 0.00 0.00 0.00 74 1020.7
20260502202805 53 74 0.0 0.0 0.00 0.00 0.00 74 1020.8
20260502201805 53 102 0.0 0.0 0.00 0.00 0.00 74 1020.8
20260502201305 53 227 0.0 0.0 0.00 0.00 0.00 74 1020.7
20260502200806 53 157 0.0 0.0 0.00 0.00 0.00 74 1020.8
20260502195306 53 88 0.0 0.0 0.00 0.00 0.00 74 1020.7
20260502194305 53 155 0.0 0.0 0.00 0.00 0.00 74 1020.5
20260502193305 53 73 0.0 0.0 0.00 0.00 0.00 74 1020.4
20260502192806 53 150 0.0 0.0 0.00 0.00 0.00 74 1020.4
20260502192305 53 235 0.0 0.0 0.00 0.00 0.00 74 1020.3
20260502191806 53 94 0.0 0.0 0.00 0.00 0.00 74 1020.2
20260502191306 53 274 0.0 0.0 0.00 0.00 0.00 74 1020.1
20260502190305 53 77 0.0 0.0 0.00 0.00 0.00 74 1019.8
20260502185306 54 87 0.0 0.0 0.00 0.00 0.00 74 1019.7
20260502184805 54 88 0.0 0.0 0.00 0.00 0.00 74 1019.5
20260502184306 54 97 0.0 0.0 0.00 0.00 0.00 73 1019.5
20260502183805 54 288 0.0 0.0 0.00 0.00 0.00 73 1019.4
20260502183306 54 85 0.0 0.0 0.00 0.00 0.00 72 1019.3
20260502182806 55 107 0.0 0.0 0.00 0.00 0.00 71 1019.3
20260502182305 55 242 0.0 0.0 0.00 0.00 0.00 70 1019.2
20260502181806 55 226 0.0 0.0 0.00 0.00 0.00 69 1019.1
20260502180306 56 67 0.0 0.0 0.00 0.00 0.00 61 1018.9
20260502170306 59 65 0.0 0.0 0.00 0.00 0.00 47 1018.0
20260502164305 59 91 0.0 0.0 0.00 0.00 0.00 45 1017.7
20260502163805 60 27 0.0 0.0 0.00 0.00 0.00 44 1017.8
20260502163306 60 74 0.0 0.0 0.00 0.00 0.00 44 1017.8
20260502162805 60 45 0.0 0.0 0.00 0.00 0.00 44 1017.7
20260502162305 61 105 0.0 0.0 0.00 0.00 0.00 43 1017.8
20260502161305 61 149 0.0 0.0 0.00 0.00 0.00 43 1017.7
20260502160805 61 83 0.0 0.0 0.00 0.00 0.00 43 1017.7
20260502152305 64 54 0.0 0.0 0.00 0.00 0.00 40 1017.6
20260502151805 64 157 0.0 0.0 0.00 0.00 0.00 41 1017.6
20260502151305 64 97 0.0 0.0 0.00 0.00 0.00 41 1017.6
20260502150806 64 99 0.0 0.0 0.00 0.00 0.00 40 1017.6
20260502150305 64 228 0.0 0.0 0.00 0.00 0.00 41 1017.7
20260502123305 65 128 0.0 0.0 0.00 0.00 0.00 40 1018.3
20260502122306 64 49 0.0 0.0 0.00 0.00 0.00 40 1018.4
20260502121805 64 226 0.0 0.0 0.00 0.00 0.00 43 1018.4
20260502121305 64 75 0.0 0.0 0.00 0.00 0.00 41 1018.4
20260502120805 65 140 0.0 0.0 0.00 0.00 0.00 41 1018.4
20260502120305 65 129 0.0 0.0 0.00 0.00 0.00 40 1018.5
20260502115805 64 183 0.0 0.0 0.00 0.00 0.00 42 1018.5
20260502115306 63 152 0.0 0.0 0.00 0.00 0.00 44 1018.4
20260502114305 63 71 0.0 0.0 0.00 0.00 0.00 43 1018.4
20260502113805 63 32 0.0 0.0 0.00 0.00 0.00 43 1018.4
20260502113305 63 26 0.0 0.0 0.00 0.00 0.00 43 1018.4
20260502112805 63 67 0.0 0.0 0.00 0.00 0.00 44 1018.3
20260502112306 62 31 0.0 0.0 0.00 0.00 0.00 44 1018.3
20260502111804 62 179 0.0 0.0 0.00 0.00 0.00 45 1018.3
20260502111305 62 61 0.0 0.0 0.00 0.00 0.00 45 1018.4
20260502110805 62 97 0.0 0.0 0.00 0.00 0.00 44 1018.3
20260502105805 62 343 0.0 0.0 0.00 0.00 0.00 46 1018.6
20260502105306 62 34 0.0 0.0 0.00 0.00 0.00 45 1018.6
20260502104805 62 45 0.0 0.0 0.00 0.00 0.00 44 1018.7
20260502103804 62 140 0.0 0.0 0.00 0.00 0.00 46 1018.7
20260502103305 62 128 0.0 0.0 0.00 0.00 0.00 45 1018.7
20260502102804 61 122 0.0 0.0 0.00 0.00 0.00 45 1018.7
20260502102306 61 94 0.0 0.0 0.00 0.00 0.00 45 1018.9
20260502101805 62 57 0.0 0.0 0.00 0.00 0.00 43 1018.8
20260502101305 62 85 0.0 0.0 0.00 0.00 0.00 43 1018.8
20260502100805 61 123 0.0 0.0 0.00 0.00 0.00 44 1018.7
20260502100304 61 92 0.0 0.0 0.00 0.00 0.00 44 1018.7
20260502090805 60 35 0.0 0.0 0.00 0.00 0.00 47 1018.6
20260502090304 59 156 0.0 0.0 0.00 0.00 0.00 48 1018.6
20260502071304 56 62 0.0 0.0 0.00 0.00 0.00 55 1018.2
20260502070805 56 17 0.0 0.0 0.00 0.00 0.00 54 1018.1
20260502070304 56 110 0.0 0.0 0.00 0.00 0.00 56 1018.1
20260502065306 56 150 0.0 0.0 0.00 0.00 0.00 57 1018.0
20260502064804 56 125 0.0 0.0 0.00 0.00 0.00 59 1018.1
20260502064305 55 79 0.0 0.0 0.00 0.00 0.00 60 1018.1
20260502063804 55 15 0.0 0.0 0.00 0.00 0.00 61 1018.1
20260502063304 55 59 0.0 0.0 0.00 0.00 0.00 61 1018.1
20260502062805 55 41 0.0 0.0 0.00 0.00 0.00 61 1018.0
20260502062306 55 66 0.0 0.0 0.00 0.00 0.00 62 1018.0
20260502061805 54 79 0.0 0.0 0.00 0.00 0.00 63 1017.9
20260502061304 53 358 0.0 0.0 0.00 0.00 0.00 64 1018.0
20260502060804 53 10 0.0 0.0 0.00 0.00 0.00 64 1017.9
20260502055804 52 143 0.0 0.0 0.00 0.00 0.00 67 1017.8
20260502055306 51 142 0.0 0.0 0.00 0.00 0.00 68 1017.8
20260502054804 51 57 0.0 0.0 0.00 0.00 0.00 69 1017.7
20260502053304 50 74 0.0 0.0 0.00 0.00 0.00 70 1017.6
20260502052804 50 106 0.0 0.0 0.00 0.00 0.00 70 1017.7
20260502052306 50 143 0.0 0.0 0.00 0.00 0.00 72 1017.7
20260502051804 50 153 0.0 0.0 0.00 0.00 0.00 72 1017.7
20260502050804 50 41 0.0 0.0 0.00 0.00 0.00 72 1017.7
20260502050304 50 51 0.0 0.0 0.00 0.00 0.00 71 1017.7
20260502045804 49 39 0.0 0.0 0.00 0.00 0.00 72 1017.6
20260502045306 49 50 0.0 0.0 0.00 0.00 0.00 72 1017.5
20260502044804 49 111 0.0 0.0 0.00 0.00 0.00 72 1017.5
20260502044304 49 13 0.0 0.0 0.00 0.00 0.00 72 1017.5
20260502043804 48 42 0.0 0.0 0.00 0.00 0.00 73 1017.5
20260502042804 47 37 0.0 0.0 0.00 0.00 0.00 76 1017.3
20260502042306 47 29 0.0 0.0 0.00 0.00 0.00 77 1017.3
20260502041804 48 245 0.0 0.0 0.00 0.00 0.00 77 1017.3
20260502041305 48 245 0.0 0.0 0.00 0.00 0.00 77 1017.3
20260502040804 48 245 0.0 0.0 0.00 0.00 0.00 77 1017.4
20260502035804 48 245 0.0 0.0 0.00 0.00 0.00 76 1017.4
20260502035306 48 245 0.0 0.0 0.00 0.00 0.00 76 1017.4
20260502034804 48 280 0.0 0.0 0.00 0.00 0.00 76 1017.4
20260502034304 48 287 0.0 0.0 0.00 0.00 0.00 76 1017.5
20260502033804 48 247 0.0 0.0 0.00 0.00 0.00 76 1017.4
20260502033304 48 236 0.0 0.0 0.00 0.00 0.00 76 1017.5
20260502032306 48 236 0.0 0.0 0.00 0.00 0.00 76 1017.4
20260502031806 48 236 0.0 0.0 0.00 0.00 0.00 76 1017.5
20260502031304 48 236 0.0 0.0 0.00 0.00 0.00 76 1017.5
20260502030804 47 236 0.0 0.0 0.00 0.00 0.00 76 1017.5
20260502025804 48 236 0.0 0.0 0.00 0.00 0.00 75 1017.6
20260502025306 48 236 0.0 0.0 0.00 0.00 0.00 75 1017.6
20260502024804 48 236 0.0 0.0 0.00 0.00 0.00 75 1017.6
20260502024304 48 236 0.0 0.0 0.00 0.00 0.00 75 1017.6
20260502022804 48 236 0.0 0.0 0.00 0.00 0.00 74 1017.7
20260502022306 47 236 0.0 0.0 0.00 0.00 0.00 74 1017.7
20260502021804 47 236 0.0 0.0 0.00 0.00 0.00 74 1017.7
20260502021304 47 235 0.0 0.0 0.00 0.00 0.00 73 1017.7
20260502020804 47 235 0.0 0.0 0.00 0.00 0.00 73 1017.7
20260502020304 47 234 0.0 0.0 0.00 0.00 0.00 73 1017.7
20260502015305 47 226 0.0 0.0 0.00 0.00 0.00 73 1017.8
20260502014804 47 225 0.0 0.0 0.00 0.00 0.00 73 1017.7
20260502014304 47 226 0.0 0.0 0.00 0.00 0.00 73 1017.7
20260502013803 47 226 0.0 0.0 0.00 0.00 0.00 73 1017.7
20260502013304 47 226 0.0 0.0 0.00 0.00 0.00 73 1017.6
20260502012306 47 226 0.0 0.0 0.00 0.00 0.00 72 1017.7
20260502011303 47 226 0.0 0.0 0.00 0.00 0.00 74 1017.6
20260502010304 47 198 0.0 0.0 0.00 0.00 0.00 73 1017.6
20260502005804 47 198 0.0 0.0 0.00 0.00 0.00 74 1017.5
20260502005306 47 198 0.0 0.0 0.00 0.00 0.00 74 1017.6
20260502004303 48 198 0.0 0.0 0.00 0.00 0.00 73 1017.5
20260502003303 48 214 0.0 0.0 0.00 0.00 0.00 73 1017.5
20260502002306 48 227 0.0 0.0 0.00 0.00 0.00 73 1017.4